Temperature
28 29 30 30 29 29 29 29 29 28 28 27 27 27 26 24 23 22 21 19 18 18 17 17 17 17 17 17 17 17 17 17 17 16 16 16 16 16 15 15 15 15 14 14
29 29 30 29 29 29 29 29 29 28 27 27 27 26 26 25 23 22 21 20 19 18 17 17 16 17 17 17 17 17 17 17 17 17 16 16 16 15 15 15 15 14 14 14
29 30 30 29 29 29 29 29 28 28 27 27 26 27 26 25 23 22 21 21 20 18 17 17 17 17 16 16 16 17 17 17 17 16 16 16 16 15 15 15 15 14 14 14
29 30 29 29 29 29 29 29 28 28 27 28 26 27 26 26 25 24 23 21 20 19 18 17 17 17 17 16 16 17 17 17 17 17 16 16 16 16 15 15 15 14 14 14
29 30 29 29 29 29 29 28 28 27 27 27 27 27 27 26 26 25 24 22 21 19 19 18 17 17 17 17 17 17 17 17 17 17 16 16 16 16 15 15 15 14 14 14
30 30 29 29 29 28 28 27 27 27 28 27 27 27 27 27 26 26 25 23 21 20 19 18 17 17 17 17 16 16 17 17 17 17 17 16 16 16 16 15 15 15 14 14
29 30 30 29 29 28 28 28 27 27 27 27 27 27 27 27 27 26 25 23 22 20 19 18 18 17 17 17 17 17 17 17 17 17 17 17 16 16 16 15 15 15 15 14
29 29 30 29 29 29 28 28 27 26 27 28 27 27 28 27 26 26 25 24 22 21 20 19 18 18 17 17 17 17 17 17 17 17 17 17 17 16 16 16 15 15 15 15
29 29 29 29 29 29 28 28 29 28 27 27 28 28 28 27 27 26 25 24 23 22 21 20 19 18 18 18 18 17 17 18 18 18 18 18 17 17 16 16 16 15 15 15
30 28 29 28 28 27 28 29 28 27 26 26 27 27 28 27 27 27 26 25 24 23 22 21 20 19 19 19 18 18 18 18 18 18 18 18 18 18 17 17 16 16 16 15
29 28 28 28 28 28 27 27 27 28 27 26 26 27 28 27 27 27 27 26 25 24 23 22 21 20 20 19 19 19 18 18 18 18 18 18 18 18 18 17 17 17 16 16
28 28 28 28 28 28 28 28 27 27 26 26 26 27 28 27 27 27 27 26 25 24 24 23 22 21 21 20 20 19 19 19 19 19 19 19 19 18 18 18 18 17 17 17
27 27 26 27 27 27 27 28 28 27 27 27 26 27 27 27 27 26 26 25 24 24 23 23 22 22 21 21 20 20 20 19 19 19 19 19 19 19 19 18 18 18 17 17
27 27 27 27 28 28 27 27 27 27 27 27 27 27 28 27 27 26 25 24 24 23 23 23 22 22 21 21 20 20 20 20 20 19 19 19 19 19 19 19 18 18 18 18
27 27 28 28 28 28 28 28 27 27 27 27 27 27 27 26 25 23 23 23 23 23 22 22 22 21 20 20 20 20 20 19 19 19 19 19 19 19 19 19 19 18 18 18
26 27 27 27 28 28 27 28 27 27 27 27 27 27 25 23 22 22 22 22 22 22 22 21 21 20 20 19 19 19 19 19 19 19 19 19 19 19 19 18 18 18 18 18
26 26 26 27 27 27 26 27 27 27 27 27 27 26 24 23 21 20 20 21 20 20 20 20 19 19 19 19 19 18 18 18 18 18 18 17 17 17 18 18 17 18 18 18
25 25 26 26 26 24 27 27 27 27 27 26 25 24 23 21 18 18 18 18 18 18 18 18 18 18 18 18 18 18 18 17 17 17 17 16 16 16 17 17 17 17 17 17
24 25 26 26 25 26 26 26 26 26 26 25 24 23 21 19 19 18 16 16 16 16 16 16 16 16 17 17 17 17 17 16 16 16 16 16 16 16 16 16 16 16 16 16
23 24 25 25 24 24 26 25 24 25 25 24 23 22 21 21 22 19 16 15 15 14 15 15 15 15 15 15 15 16 16 16 16 15 15 15 15 15 15 15 15 15 15 15
23 23 24 24 24 25 25 24 24 24 24 23 22 22 21 22 20 16 15 14 14 14 14 15 15 15 14 15 15 15 15 15 14 14 14 14 14 14 14 14 14 14 14 13
24 24 23 24 24 24 24 24 24 23 21 21 21 21 20 18 16 15 14 14 13 13 13 14 14 14 13 13 14 14 13 13 13 13 13 12 12 12 12 12 12 12 12 12
23 24 25 25 24 22 22 23 21 20 21 20 20 19 18 16 15 15 14 14 13 13 13 13 13 13 13 12 12 12 12 11 11 11 11 11 11 11 11 11 11 11 11 11
23 22 23 23 24 22 21 20 20 19 20 19 19 18 17 16 15 14 14 13 13 13 13 13 12 12 12 11 11 11 11 11 10 10 10 10 10 10 10 10 10 10 10 10
22 22 23 23 23 22 20 19 19 18 18 18 17 17 16 15 15 14 13 13 13 12 12 12 12 11 11 11 10 10 10 10 10 10 10 10 10 10 9 9 9 9 9 9
21 21 22 22 20 21 19 18 18 17 17 17 16 16 15 15 14 14 13 13 12 12 12 12 11 11 11 10 10 10 9 9 9 10 10 10 10 10 9 9 9 9 8 8
Wind_Speed
5 8 5 5 7 8 10 10 10 6 2 5 7 7 4 4 6 7 8 9 9 9 10 10 10 9 10 9 9 11 11 11 9 8 8 7 6 5 4 4 5 3 3 3
8 8 4 5 6 8 9 10 8 4 1 5 7 6 3 4 6 7 8 9 10 11 11 11 11 11 11 11 11 12 12 11 10 8 7 5 5 5 4 4 5 4 3 3
11 5 3 7 9 9 9 9 9 8 4 5 7 4 3 4 5 7 7 8 10 12 13 13 13 12 13 12 12 12 12 12 11 10 8 7 6 5 5 5 5 5 4 3
9 7 6 9 9 9 8 5 6 6 7 4 4 5 3 4 6 7 8 8 10 12 13 14 14 14 14 14 13 12 13 12 11 11 9 10 7 6 5 5 5 6 5 4
9 6 9 11 8 7 6 4 5 6 7 5 2 5 3 4 4 6 8 9 10 12 13 14 14 14 14 14 13 13 13 12 12 11 10 9 8 5 5 5 6 6 6 6
15 10 8 8 5 4 2 4 6 7 7 3 4 5 2 2 1 4 7 9 10 12 13 13 13 13 13 14 14 14 13 13 12 12 11 11 9 7 6 7 7 7 6 6
14 12 8 7 6 5 6 8 6 5 3 3 2 4 3 3 2 4 7 9 11 12 13 13 14 15 15 16 16 15 15 14 14 13 13 12 10 9 9 8 8 7 6 6
12 10 8 7 8 5 6 8 7 7 7 6 1 3 3 3 4 5 7 10 12 13 13 14 15 15 16 17 17 16 16 15 15 14 13 12 11 9 8 9 7 7 6 6
10 8 3 4 5 5 5 6 6 8 8 7 3 2 2 5 6 7 9 11 12 13 14 15 15 16 16 17 17 17 16 15 15 15 14 13 12 11 9 8 9 8 7 6
11 10 6 5 5 4 6 4 4 6 6 6 4 2 1 4 7 9 10 11 12 13 14 15 16 16 16 17 16 16 16 15 15 15 14 12 13 12 11 10 10 8 8 7
11 10 8 8 9 8 6 5 6 6 6 7 6 2 3 1 4 8 10 11 12 14 15 15 16 16 16 16 16 16 16 15 15 15 14 13 12 12 12 11 11 10 10 10
10 9 10 8 3 3 8 8 7 7 6 6 8 3 5 2 2 5 7 9 11 13 14 15 16 16 16 17 17 16 16 16 15 14 14 13 13 12 12 12 12 11 11 11
9 7 9 8 7 7 8 8 8 6 6 8 8 2 6 3 2 3 5 7 9 11 13 14 15 16 16 16 16 16 16 16 15 14 14 13 13 13 13 13 12 12 12 12
8 8 11 10 4 5 7 8 8 9 9 8 8 7 2 0 0 0 2 5 8 10 12 13 14 14 14 14 14 14 14 14 14 13 13 13 13 13 13 12 12 12 12 12
7 10 11 10 5 6 8 8 9 11 11 11 10 9 4 3 2 2 1 3 6 8 10 11 12 11 11 11 11 12 12 11 11 12 12 12 11 11 11 11 11 11 12 13
7 8 9 10 8 8 10 10 11 11 11 11 11 8 4 4 3 3 3 2 4 5 7 8 8 8 8 8 8 8 9 9 9 10 10 9 9 9 10 10 10 11 11 12
9 8 9 11 7 8 12 11 11 10 10 10 10 2 4 4 5 5 5 5 5 6 6 6 5 5 4 4 4 5 4 4 5 5 5 5 6 7 7 8 9 10 10 11
7 8 8 9 7 12 5 2 4 8 8 5 3 2 5 8 9 8 7 7 8 8 9 8 8 8 8 7 7 7 7 6 5 4 2 1 1 2 3 4 5 7 8 9
4 6 7 9 11 12 5 2 3 6 6 3 4 6 10 12 11 10 9 10 10 11 11 11 11 12 11 11 10 11 10 9 8 7 6 4 2 1 1 2 3 4 5 7
4 6 8 8 10 10 2 4 1 4 6 4 6 9 11 11 6 7 9 11 12 12 12 13 14 14 14 12 11 12 12 11 10 9 8 6 5 4 4 3 3 3 4 6
7 7 10 10 10 6 4 5 4 5 1 5 7 9 9 6 6 13 12 12 12 13 13 14 14 14 13 12 12 13 13 12 10 9 9 8 7 6 5 5 4 4 4 5
7 7 8 7 8 3 6 4 2 3 4 4 7 8 9 14 17 15 14 13 12 12 13 13 13 13 12 11 12 13 12 10 8 8 8 8 7 6 6 5 5 5 5 5
4 3 3 3 1 5 3 1 3 2 3 5 8 10 15 17 17 16 14 12 12 11 11 11 12 11 10 10 10 11 9 7 7 7 7 6 6 6 6 6 6 5 5 6
3 1 2 3 1 2 1 1 1 2 4 7 10 13 16 16 16 15 13 12 11 10 10 9 9 9 9 8 8 8 7 6 5 5 5 4 4 5 6 6 6 7 7 8
2 2 3 4 1 1 3 2 2 5 8 10 13 14 15 16 15 14 12 11 10 9 8 8 7 7 7 6 6 5 5 4 4 4 4 5 5 5 6 6 6 6 6 6
3 3 5 3 4 3 3 3 5 8 10 13 15 15 15 14 14 13 11 10 9 8 7 6 5 5 5 4 4 3 3 4 4 5 5 6 6 6 7 8 8 4 7 6
Wind_Direction
228 251 263 329 326 313 309 311 318 332 324 270 274 281 274 203 201 197 191 185 181 182 173 170 172 168 163 165 165 159 155 152 156 159 162 163 161 158 152 139 124 118 93 82
241 243 283 310 302 291 294 302 319 328 280 281 297 287 261 202 205 203 198 194 187 176 174 173 174 171 171 173 172 164 161 164 172 168 168 167 157 170 161 150 142 145 128 114
248 269 310 290 297 302 304 313 324 320 300 243 289 254 189 181 193 196 201 197 188 180 179 177 175 173 173 175 172 171 169 172 178 170 169 159 160 177 174 175 173 170 162 141
253 263 272 288 300 305 306 339 311 299 290 322 311 325 127 169 189 196 196 193 187 183 179 177 177 177 178 177 173 172 174 178 178 178 183 182 189 190 183 188 174 176 186 183
242 253 276 288 303 298 313 323 289 283 286 291 303 309 84 164 200 193 192 189 183 180 179 178 180 181 181 177 175 176 177 182 181 188 190 197 205 198 184 188 176 195 191 200
261 268 275 282 293 280 227 246 245 246 260 292 11 315 26 96 187 173 176 180 180 178 178 178 180 178 180 179 180 180 181 186 187 192 198 208 210 206 198 201 193 203 198 201
242 243 233 242 241 206 228 270 280 270 268 355 54 299 9 78 155 174 170 172 175 177 177 177 179 179 181 182 184 185 186 190 192 196 202 207 211 208 210 213 206 215 210 203
245 245 216 215 244 263 246 279 295 310 321 332 199 321 42 111 150 166 165 164 170 176 179 181 182 182 183 184 186 188 191 194 195 200 205 209 210 215 217 214 221 211 221 214
247 251 178 210 232 257 247 260 304 286 286 292 324 344 134 146 162 168 170 170 175 179 181 183 184 186 186 188 189 192 193 197 199 203 205 209 211 220 223 208 215 218 213 207
250 262 226 185 196 216 274 273 257 277 298 300 302 294 60 156 175 176 179 182 181 180 182 183 184 187 188 190 192 194 197 201 204 206 209 211 211 213 215 216 216 217 209 208
233 244 230 203 225 228 199 221 251 273 291 297 306 352 59 144 185 185 185 186 185 185 185 184 185 186 188 190 192 196 200 204 207 211 211 216 213 212 211 214 214 212 212 206
213 236 245 227 212 271 247 246 236 263 272 266 288 314 97 107 170 190 191 187 188 190 188 187 186 187 191 194 196 198 203 207 210 211 212 214 215 213 213 214 213 210 210 210
182 211 230 215 202 205 225 226 236 254 271 270 275 289 121 131 153 182 198 190 191 194 193 191 190 193 197 200 202 203 206 210 211 210 212 213 214 213 215 217 212 209 209 213
193 223 241 256 254 200 213 215 220 239 260 271 270 288 250 263 346 151 204 198 193 193 195 196 195 198 202 205 208 212 213 214 214 212 213 215 217 216 215 215 212 211 211 214
207 230 237 255 254 244 246 237 226 239 264 279 288 288 318 35 18 10 279 198 189 187 191 196 198 198 202 206 210 214 218 216 215 214 216 219 219 218 218 216 215 214 215 219
211 235 233 237 234 241 250 249 244 247 258 267 276 283 62 72 67 58 62 122 152 162 172 180 186 190 193 200 206 210 214 214 210 216 221 219 217 214 216 218 218 219 221 226
198 215 231 243 229 244 250 249 248 250 252 263 275 312 103 98 76 62 64 85 98 107 115 127 137 143 148 156 165 168 177 185 190 201 212 215 219 219 221 224 224 226 228 229
202 216 232 247 231 249 270 43 274 266 263 261 262 133 124 115 99 76 66 79 87 88 89 87 91 92 92 99 109 110 112 114 116 116 116 136 221 233 235 236 240 243 244 243
206 215 236 244 245 251 229 195 238 254 261 230 199 154 140 137 122 85 73 78 82 84 84 81 79 81 79 81 87 92 89 85 83 78 69 59 52 37 328 291 285 275 268 262
169 219 236 237 256 261 254 112 168 255 245 166 172 166 163 174 173 112 97 92 87 84 84 85 83 80 77 75 81 85 82 77 69 66 64 59 55 52 41 22 349 321 293 280
185 205 229 238 248 255 97 126 188 245 37 130 167 172 177 173 105 120 114 101 94 90 88 87 84 79 75 75 76 75 72 67 61 59 59 53 47 48 44 31 14 346 320 310
211 210 219 236 246 238 117 163 233 38 85 146 159 158 139 119 118 122 118 112 106 100 93 89 85 80 75 74 75 74 67 64 62 60 56 49 36 26 31 24 10 354 335 315
229 267 247 239 34 78 125 95 72 86 131 148 149 141 137 134 132 129 124 120 113 106 98 92 91 87 80 73 73 75 70 61 58 56 51 43 35 27 17 4 357 345 339 328
191 325 272 258 153 93 112 155 163 163 150 147 143 142 141 137 135 132 129 126 120 112 106 104 100 96 88 81 76 73 67 58 50 41 31 22 12 4 8 344 344 342 339 337
350 244 260 257 287 132 89 72 149 146 142 138 136 137 138 136 136 134 132 129 125 120 115 111 106 102 96 86 75 65 55 40 28 16 359 348 347 352 333 331 329 323 327 335
342 307 293 319 24 348 42 71 134 140 139 138 135 132 131 132 132 131 127 124 123 120 119 114 106 96 88 80 72 54 31 12 351 344 342 336 334 337 326 323 318 270 264 245
Height
1517 1513 1507 1505 1504 1505 1504 1504 1502 1500 1500 1502 1500 1500 1501 1506 1509 1511 1513 1516 1517 1519 1521 1524 1527 1530 1534 1538 1542 1545 1548 1552 1556 1559 1562 1565 1567 1568 1569 1569 1568 1568 1568 1568
1512 1508 1504 1504 1504 1504 1502 1502 1499 1497 1500 1501 1499 1498 1499 1503 1506 1509 1511 1513 1516 1518 1520 1523 1526 1529 1532 1536 1539 1543 1547 1551 1555 1558 1562 1564 1566 1568 1568 1568 1568 1568 1568 1568
1509 1502 1503 1504 1501 1501 1498 1499 1498 1499 1498 1498 1499 1496 1497 1500 1504 1507 1509 1511 1513 1516 1518 1521 1524 1528 1531 1534 1537 1542 1546 1550 1554 1557 1560 1563 1565 1566 1567 1568 1568 1568 1568 1568
1503 1500 1502 1501 1498 1498 1498 1495 1497 1498 1499 1495 1500 1501 1495 1495 1499 1502 1505 1508 1511 1514 1517 1520 1523 1526 1530 1533 1537 1541 1545 1549 1553 1556 1559 1562 1564 1566 1567 1567 1568 1567 1567 1568
1499 1498 1500 1500 1497 1496 1496 1497 1497 1496 1496 1496 1495 1499 1493 1493 1495 1497 1501 1505 1508 1512 1515 1518 1521 1525 1529 1533 1536 1540 1544 1548 1551 1554 1558 1560 1563 1565 1566 1566 1566 1567 1567 1567
1496 1496 1497 1495 1495 1496 1497 1497 1496 1494 1490 1501 1497 1500 1496 1489 1491 1493 1497 1502 1507 1510 1514 1517 1520 1524 1528 1532 1535 1539 1543 1546 1549 1553 1556 1558 1561 1563 1564 1564 1565 1566 1566 1566
1496 1492 1492 1494 1494 1496 1497 1498 1502 1502 1501 1499 1493 1497 1493 1487 1489 1492 1495 1500 1505 1509 1512 1516 1519 1522 1526 1530 1534 1538 1541 1544 1547 1551 1554 1556 1558 1560 1561 1563 1563 1564 1566 1565
1496 1495 1487 1489 1491 1491 1492 1494 1507 1515 1508 1496 1492 1494 1487 1486 1490 1493 1495 1499 1504 1507 1511 1514 1517 1521 1524 1528 1532 1536 1539 1542 1545 1548 1551 1554 1556 1558 1560 1560 1562 1562 1563 1564
1490 1491 1486 1488 1488 1489 1492 1490 1486 1496 1497 1500 1492 1487 1483 1486 1489 1492 1495 1498 1502 1506 1509 1512 1516 1519 1523 1526 1530 1533 1537 1540 1543 1546 1549 1551 1553 1555 1557 1557 1558 1560 1560 1561
1481 1491 1484 1488 1489 1491 1489 1487 1492 1495 1509 1509 1497 1491 1487 1485 1487 1489 1493 1496 1500 1504 1507 1510 1514 1517 1521 1524 1528 1531 1534 1537 1540 1543 1546 1548 1550 1551 1553 1554 1555 1556 1557 1557
1480 1489 1486 1487 1489 1486 1492 1492 1491 1489 1494 1506 1508 1496 1479 1483 1484 1487 1490 1494 1497 1501 1504 1508 1511 1515 1519 1522 1526 1528 1531 1534 1537 1540 1542 1544 1546 1548 1549 1550 1552 1553 1554 1554
1479 1482 1485 1482 1480 1482 1482 1484 1488 1497 1497 1496 1498 1492 1478 1481 1483 1486 1488 1492 1495 1499 1502 1505 1509 1513 1516 1519 1523 1526 1528 1531 1534 1536 1538 1540 1543 1544 1545 1547 1548 1549 1550 1551
1478 1484 1493 1492 1490 1486 1484 1482 1483 1486 1491 1492 1496 1490 1478 1481 1483 1486 1489 1491 1495 1498 1500 1503 1507 1510 1513 1516 1520 1523 1525 1528 1531 1533 1534 1536 1538 1540 1541 1543 1544 1545 1546 1548
1477 1478 1483 1488 1481 1476 1481 1482 1482 1485 1487 1488 1487 1482 1477 1479 1483 1487 1489 1491 1493 1496 1498 1501 1504 1507 1510 1514 1517 1519 1522 1525 1527 1529 1531 1532 1534 1536 1537 1539 1540 1541 1542 1544
1475 1476 1474 1472 1470 1473 1475 1477 1479 1483 1481 1484 1479 1477 1476 1482 1486 1489 1490 1491 1492 1494 1496 1499 1501 1504 1507 1510 1513 1516 1518 1521 1523 1525 1526 1528 1530 1531 1533 1534 1536 1537 1538 1539
1474 1474 1474 1475 1472 1473 1476 1474 1475 1477 1477 1477 1477 1477 1480 1487 1489 1490 1491 1491 1491 1493 1495 1497 1500 1502 1505 1507 1509 1512 1514 1517 1518 1520 1522 1524 1525 1527 1528 1529 1531 1532 1533 1534
1470 1474 1478 1476 1471 1476 1480 1471 1471 1472 1471 1474 1476 1477 1483 1487 1491 1492 1493 1492 1493 1493 1495 1497 1499 1501 1502 1504 1506 1508 1510 1513 1514 1516 1518 1520 1521 1522 1523 1525 1526 1527 1528 1529
1470 1473 1473 1474 1480 1492 1471 1467 1468 1470 1470 1472 1476 1481 1485 1490 1495 1496 1496 1496 1496 1496 1496 1498 1499 1500 1501 1503 1505 1506 1508 1510 1512 1513 1514 1516 1517 1518 1519 1520 1520 1521 1522 1522
1470 1473 1472 1474 1479 1476 1468 1469 1470 1472 1472 1473 1477 1482 1487 1491 1493 1497 1499 1499 1499 1499 1498 1499 1500 1501 1502 1503 1505 1505 1507 1508 1510 1511 1512 1513 1514 1514 1515 1515 1515 1516 1516 1516
1473 1473 1472 1476 1482 1483 1469 1468 1472 1474 1474 1474 1478 1482 1485 1488 1487 1498 1502 1501 1502 1501 1500 1501 1501 1502 1503 1505 1506 1506 1507 1508 1509 1510 1511 1511 1511 1511 1511 1511 1511 1511 1510 1510
1473 1474 1473 1474 1477 1468 1467 1471 1473 1479 1477 1477 1479 1482 1484 1486 1489 1499 1502 1503 1504 1504 1503 1503 1504 1505 1506 1507 1508 1508 1507 1508 1509 1510 1510 1511 1510 1510 1509 1507 1507 1506 1506 1505
1468 1470 1473 1472 1477 1474 1470 1471 1472 1475 1478 1478 1480 1483 1486 1490 1495 1499 1503 1505 1506 1507 1507 1506 1506 1507 1508 1509 1510 1509 1509 1510 1510 1510 1510 1509 1509 1508 1507 1505 1504 1503 1502 1501
1465 1464 1461 1465 1469 1471 1472 1473 1476 1477 1479 1480 1482 1485 1488 1492 1496 1501 1504 1506 1508 1509 1509 1509 1510 1510 1511 1511 1511 1511 1511 1511 1510 1510 1509 1509 1508 1507 1505 1504 1502 1501 1500 1499
1466 1469 1466 1467 1466 1471 1474 1475 1477 1478 1479 1481 1484 1487 1490 1493 1498 1501 1504 1507 1509 1510 1511 1512 1513 1513 1512 1512 1512 1512 1511 1511 1511 1510 1509 1508 1507 1506 1504 1502 1502 1500 1498 1496
1468 1468 1466 1467 1469 1471 1474 1476 1477 1479 1480 1482 1485 1488 1492 1495 1499 1503 1506 1508 1510 1512 1513 1514 1515 1514 1514 1513 1513 1513 1512 1511 1511 1510 1509 1508 1507 1505 1502 1501 1499 1497 1495 1493
1471 1472 1470 1469 1474 1474 1476 1477 1478 1480 1482 1484 1487 1491 1494 1498 1502 1505 1508 1510 1512 1513 1514 1515 1515 1515 1515 1514 1514 1513 1512 1511 1510 1509 1508 1507 1505 1503 1501 1499 1496 1493 1491 1488